Location: Ferchesar
(52.6477°N, 12.4298°E)
Time: 16:17:26
(UTC+01:00)

Vanguard 1 - Pass Details

Date: 16 December 2021
Orbit: 652 x 3830 km, 34.2° (Epoch: 22 January)

Event Time Altitude Azimuth Distance (km) Brightness Sun altitude
Rises 00:55:59 0° 263° (W) 6,902 - -59.1°
Reaches altitude 10° 01:00:31 10° 257° (WSW) 6,214 - -58.9°
Maximum altitude 01:19:19 41° 197° (SSW) 4,793 - -57.5°
Exits shadow 01:34:49 19° 144° (SE) 5,903 13.8 -56.1°
Drops below altitude 10° 01:39:00 10° 137° (SE) 6,457 14.1 -55.7°
Sets 01:43:52 0° 130° (SE) 7,178 14.5 -55.2°
